Regional Weather Roundup
Issued by NWS New Orleans/Baton Rouge, LA

Home | Current Version | Previous Version | Text Only | Print | Product List | Glossary On
Versions: 1 2 3 4 5 6 7 8 9 10 11 12 13 14 15 16 17 18 19 20 21 22 23 24 25 26 27 28 29 30 31 32 33 34 35 36 37 38 39 40 41 42 43 44 45 46 47 48 49 50
951
ASUS44 KLIX 230601
RWRLIX
NEW ORLEANS REGIONAL WEATHER ROUNDUP
NATIONAL WEATHER SERVICE NEW ORLEANS LA
100 AM CDT WED APR 23 2014

NOTE: "FAIR" INDICATES FEW OR NO CLOUDS BELOW 12,000 FEET WITH NO
      SIGNIFICANT WEATHER AND/OR OBSTRUCTIONS TO VISIBILITY.
      SKY/WX - SKY CONDITION AND SIGNIFICANT WEATHER.
      TMP - AIR TEMPERATURE.     DP    - DEWPOINT TEMPERATURE.
      RH  - RELATIVE HUMIDITY.   PRES  - PRESSURE.
      HI  - HEAT INDEX.          WCI   - WIND CHILL INDEX.

*  THESE STATIONS ARE NOT NWS OR FAA STATIONS AND ARE NOT UNDER
   NWS QUALITY CONTROL.

LAZ038-040-048-061>063-065>067-069-230700-
SOUTHEAST LOUISIANA

CITY           SKY/WX    TMP DP  RH WIND       PRES   REMARKS
N.O. AUDUBON     N/A     66  64  92 MISG        N/A
6HR MIN TEMP:  65; 6HR MAX TEMP:  77;

N.O. INTL ARPT   N/A     67  64  90 CALM      29.93S
6HR MIN TEMP:  65; 6HR MAX TEMP:  75;

N.O. LAKEFRONT   N/A     69  65  86 N3        29.93F
6HR MIN TEMP:  69; 6HR MAX TEMP:  73;

N.O. DOWNTOWN*   N/A     70  61  73 CALM      29.94S
6HR MIN TEMP:  70; 6HR MAX TEMP:  77;

SLIDELL          N/A     61  58  90 CALM      29.92S
6HR MIN TEMP:  60; 6HR MAX TEMP:  75;

BATON ROUGE      N/A     62  59  90 CALM      29.94F
6HR MIN TEMP:  62; 6HR MAX TEMP:  77;

BOOTHVILLE       N/A     67  67 100 W5        29.93S FOG
6HR MIN TEMP:  67; 6HR MAX TEMP:  73;

BELLE CHASSE     N/A     61  58  90 CALM      29.93S FOG
6HR MIN TEMP:  61; 6HR MAX TEMP:  73;

BOGALUSA*        N/A     60  57  89 CALM      29.95S
6HR MIN TEMP:  59; 6HR MAX TEMP:  75;

GALLIANO*      NOT AVBL
NEW ROADS*     NOT AVBL
GONZALES*      NOT AVBL
HAMMOND*       NOT AVBL
HOUMA*         FOG       67  64  93 CALM      29.94S VSB<1/4
6HR MIN TEMP:  66; 6HR MAX TEMP:  76;

PORT FOURCHON* CLOUDY    72  68  88 W8        29.96S

$$

MSZ070-080>082-230700-
SOUTHERN MISSISSIPPI

CITY           SKY/WX    TMP DP  RH WIND       PRES   REMARKS
MCCOMB           N/A     60  58  92 CALM      29.95S
6HR MIN TEMP:  58; 6HR MAX TEMP:  74;

GULFPORT         N/A     68  63  84 N6        29.91S
6HR MIN TEMP:  68; 6HR MAX TEMP:  75; 6HR PCP: TRACE;

BILOXI         NOT AVBL
PASCAGOULA       N/A     64  63  96 N3        29.91F FOG
6HR MIN TEMP:  62; 6HR MAX TEMP:  71;


$$

COASTAL OBSERVATIONS
LAKE AND NEARSHORE STATIONS

STATION/POSITION TIME  TEMP    WIND        PRES    WAVE
                       AIR SEA DIR/SP/G            HT/PER
                 (UTC) (F)     (DEG/KT/KT) (MB)    (FT/S)
PASCAGOULA       0500   68     350/  7/  9 1012.1
WAVELAND YACHT   0500   67 72  270/  3/  3 1012.4
GRAND ISLE       0500   71 72  300/  9/ 11 1014.0
SOUTHWEST PASS   0500   67 60  260/ 10/ 12 1013.9
NEW CANAL        0500   70 69  350/  3/  4 1014.0
SHELL BEACH      0500   70 68  340/  5/  6 1013.2

OFFSHORE STATIONS

STATION/POSITION TIME  TEMP    WIND        PRES    WAVE
                       AIR SEA DIR/SP/G            HT/PER
                 (UTC) (F)     (DEG/KT/KT) (MB)    (FT/S)
64 S DAUPHIN ISL 0550   69 69  250/ 10/ 10 1013.2

$$




USA.gov is the U.S. government's official web portal to all federal, state and local government web resources and services.